Location: Conjunto Santa Maria
(19.9513°S, 43.9599°W)
Time: 12:35:52
(UTC+00:00)

SL-08 RB Rocket - Pass Details

Date: 21 January 2021
Orbit: 647 x 683 km, 97.8° (Epoch: 03 March)

Event Time Altitude Azimuth Distance (km) Brightness Sun altitude
Rises 23:04:18 0° 174° (S) 3,062 7.4 -18.5°
Reaches altitude 10° 23:06:35 10° 177° (S) 2,137 6.6 -19.0°
Maximum altitude 23:11:13 63° 257° (WSW) 758 4.2 -19.9°
Drops below altitude 10° 23:15:45 10° 338° (NNW) 2,096 6.2 -20.8°
Sets 23:17:58 0° 341° (NNW) 2,998 7.0 -21.3°
